Home   Weather   Mesa   Past weeks
Flag for USA

Past Weather in Mesa, Arizona, USA — Yesterday and Last 2 Weeks

Now
80 °F

Sunny.


Feels Like: 78 °F
Forecast: 84 / 58 °F
Wind: 3 mph from North

Location: Mesa / Falcon Field

Current Time: Oct 19, 2019 at 1:07:41 pm

Latest Report: Oct 19, 2019 at 11:54 am


Visibility: 10 mi

Pressure: 29.85 "Hg

Humidity: 16%

Dew Point: 30 °F

Location of MesaLocation

Past Weather in Mesa — Graph

°F

Mesa Temperature Yesterday

Maximum temperature yesterday: 82 °F (at 2:54 pm)
Minimum temperature yesterday: 66 °F (at 6:54 am)
Average temperature yesterday: 74 °F

High & Low Weather Summary for the Past Weeks

 TemperatureHumidityPressure
High96 °F (Oct 7, 2:54 pm)50% (Oct 5, 1:54 am)30.00 "Hg (Oct 5, 1:54 am)
Low60 °F (Oct 19, 6:54 am)6% (Oct 11, 9:54 am)29.55 "Hg (Oct 17, 5:54 pm)
Average79 °F25%29.80 "Hg
* Reported Oct 4 11:54 am — Oct 19 11:54 am, Mesa. Weather by CustomWeather, © 2019

Note: Actual official high and low records may vary slightly from our data, if they occured in-between our weather recording intervals... More about our weather records

Advertising

Mesa Weather History for the Previous 24 Hours

Scroll right to see more
 ConditionsComfort  
Time TempWeatherWind HumidityBarometerVisibility
11:54 am
Sat, Oct 19
80 °FSunny.3 mph16%29.85 "Hg10 mi
10:54 am78 °FSunny.3 mph22%29.86 "Hg10 mi
9:54 am74 °FSunny.No wind26%29.88 "Hg10 mi
8:54 am70 °FSunny.6 mph32%29.88 "Hg10 mi
7:54 am65 °FSunny.6 mph36%29.87 "Hg10 mi
6:54 am60 °FSunny.5 mph44%29.85 "Hg10 mi
5:54 am61 °FClear.6 mph42%29.84 "Hg10 mi
4:54 am63 °FClear.No wind37%29.82 "Hg10 mi
3:54 am62 °FClear.5 mph39%29.80 "Hg10 mi
2:54 am62 °FClear.3 mph43%29.80 "Hg10 mi
1:54 am63 °FClear.3 mph41%29.80 "Hg10 mi
12:54 am65 °FClear.5 mph39%29.79 "Hg10 mi
11:54 pm
Fri, Oct 18
66 °FClear.5 mph37%29.80 "Hg10 mi
10:54 pm67 °FClear.No wind35%29.80 "Hg10 mi
9:54 pm71 °FClear.No wind32%29.78 "Hg10 mi
8:54 pm71 °FClear.No wind31%29.78 "Hg10 mi
7:54 pm76 °FClear.3 mph23%29.77 "Hg10 mi
6:54 pm76 °FClear.5 mph24%29.75 "Hg10 mi
5:54 pm80 °FClear.6 mph20%29.74 "Hg10 mi
4:54 pm81 °FSunny.7 mph21%29.73 "Hg10 mi
3:54 pm82 °FSunny.9 mph20%29.73 "Hg10 mi
2:54 pm82 °FSunny.9 mph21%29.73 "Hg10 mi
1:54 pm81 °FSunny.9 mph20%29.73 "Hg10 mi
Weather by CustomWeather, © 2019

See weather overview